STARLINK-32958 (63563 NORAD) Tracking and Keplerian Element Data

This shows tracking and keplerian element data for the satellite.

Feedback or suggestion? Click here.




ElementValue
Catalog63563
NameSTARLINK-32958
Epoch Orbit3975
Epoch Day354.08899874
Epoch Year2025
RAAN0.1629
Inclination43.0002
Eccentricity0.0001211
Argument of Perigee229.7292
Mean Anonmoly130.3454
Mean Motion15.27586813
Decay Rate0.00018809
L11 63563U 25075R 25354.08899874 .00018809 00000+0 69114-3 0 9993
L22 63563 43.0002 0.1629 0001211 229.7292 130.3454 15.27586813 39750



Live tracking and technical data element details for STARLINK-32958 (NORAD 63563). STARLINK-32958 can be tracked NOW for your location showing map with azimuth and elevation plus other details from your city location.







IsCatalogInMostPopularTable: catalog: 63563, numindb: 6
Update: records affected: 1



GetName: 63563 STARLINK-32958

Hit Count: updated at: Mon, 20 Apr 2026 10:33:51 GMT